Location: Perryvale
(54.4667°N, 113.3833°W)
Time: 23:29:06
(UTC+00:00)

Vanguard 1 - Pass Details

Date: 29 May 2024
Orbit: 652 x 3825 km, 34.2° (Epoch: 13 June)

Event Time Altitude Azimuth Distance (km) Brightness Sun altitude
Rises 03:22:14 0° 227° (SW) 4,019 13.4 2.8°
Reaches altitude 10° 03:25:11 10° 213° (SSW) 3,402 12.8 2.4°
Maximum altitude 03:31:59 24° 163° (SSE) 3,204 12.3 1.6°
Drops below altitude 10° 03:42:18 10° 117° (ESE) 5,342 13.2 0.5°
Sets 03:48:34 0° 107° (ESE) 6,923 13.8 -0.2°
